Weather reports worldwide

Advertisment
Asturias/Aviles, Spain (8011): temperature & dewpoint: 27.06.2020 18:00:00 - 03.07.2020 18:00:00 (CEST)Asturias/Aviles, Spain (8011): wind speed: 27.06.2020 18:00:00 - 03.07.2020 18:00:00 (CEST)Asturias/Aviles, Spain (8011): wind direction: 27.06.2020 18:00:00 - 03.07.2020 18:00:00 (CEST)Asturias/Aviles, Spain (8011): reduced air pressure: 27.06.2020 18:00:00 - 03.07.2020 18:00:00 (CEST)Asturias/Aviles, Spain (8011): visibility: 27.06.2020 18:00:00 - 03.07.2020 18:00:00 (CEST)
Date & Time tt [°C] td [°C] ff [km/h] ff [kn] dd ppp [hPa] vv [km]
03.07.2020 18:00:00 18,7 12,0 8 4 NNE 1025,2 -
03.07.2020 17:00:00 18,7 11,7 11 6 NNE 1025,1 30
03.07.2020 16:00:00 18,7 12,3 11 6 NNE 1024,9 -
03.07.2020 15:00:00 18,8 12,4 11 6 NNE 1024,9 -
03.07.2020 14:00:00 18,6 12,2 11 6 NNE 1025,3 25
03.07.2020 13:00:00 17,8 12,6 8 4 NNE 1025,6 -
03.07.2020 12:00:00 17,2 13,7 9 5 NW 1025,6 -
03.07.2020 11:00:00 16,3 13,4 8 4 NW 1025,5 25
03.07.2020 10:00:00 16,1 13,9 8 4 WNW 1025,3 -
03.07.2020 09:00:00 14,7 14,5 5 3 SW 1025,1 -
03.07.2020 08:00:00 13,8 13,8 9 5 SSW 1024,9 20
03.07.2020 07:00:00 13,5 13,5 8 4 SW 1024,5 -
03.07.2020 06:00:00 13,6 13,6 4 2 SW 1024,6 9
03.07.2020 05:00:00 14,0 12,9 8 4 SW 1024,5 -
03.07.2020 04:00:00 14,0 13,4 8 4 SSW 1024,7 -
03.07.2020 03:00:00 14,3 13,2 8 4 SW 1024,9 -
03.07.2020 02:00:00 14,3 13,1 8 4 SSW 1025,1 -
03.07.2020 01:00:00 15,3 12,4 4 2 WSW 1025,2 -
03.07.2020 00:00:00 15,8 12,3 2 1 WNW 1025,0 -
02.07.2020 23:00:00 15,9 11,2 5 3 NW 1024,7 10
02.07.2020 22:00:00 15,9 10,6 5 3 NW 1024,2 -
02.07.2020 21:00:00 16,3 13,0 13 7 WNW 1023,9 -
02.07.2020 20:00:00 16,4 12,6 2 1 WNW 1023,5 12
02.07.2020 19:00:00 17,0 12,0 15 8 WNW 1023,1 -
02.07.2020 18:00:00 17,1 12,0 11 6 WNW 1023,1 -
02.07.2020 17:00:00 17,0 12,5 18 10 NW 1022,8 10
02.07.2020 16:00:00 19,0 14,4 16 9 NW 1022,3 -
02.07.2020 15:00:00 18,9 13,1 24 13 WNW 1021,9 -
02.07.2020 14:00:00 19,1 15,3 26 14 WNW 1021,8 12
02.07.2020 13:00:00 17,7 13,2 18 10 WNW 1021,6 -
02.07.2020 12:00:00 17,2 14,4 9 5 WNW 1021,3 -
02.07.2020 11:00:00 16,7 13,7 11 6 NW 1020,6 10
02.07.2020 10:00:00 17,2 13,7 8 4 WNW 1019,9 -
02.07.2020 09:00:00 16,5 14,7 8 4 WSW 1019,6 -
02.07.2020 08:00:00 14,5 14,5 8 4 SSW 1019,3 9
02.07.2020 07:00:00 14,3 14,3 8 4 WSW 1019,0 -
02.07.2020 06:00:00 14,6 14,6 8 4 W 1018,7 -
02.07.2020 05:00:00 15,3 14,3 13 7 W 1018,5 -
02.07.2020 04:00:00 15,3 14,2 9 5 W 1018,5 -
02.07.2020 03:00:00 15,3 13,8 8 4 WSW 1018,7 -
02.07.2020 02:00:00 15,3 13,8 8 4 WSW 1018,8 -
02.07.2020 01:00:00 15,1 14,5 9 5 W 1019,1 -
02.07.2020 00:00:00 15,1 14,6 13 7 W 1019,1 -
01.07.2020 23:00:00 14,8 14,8 11 6 WSW 1018,9 8
01.07.2020 22:00:00 15,4 15,4 13 7 WNW 1018,5 -
01.07.2020 21:00:00 15,7 15,2 13 7 WNW 1018,1 -
01.07.2020 20:00:00 16,7 15,1 13 7 WNW 1017,7 15
01.07.2020 19:00:00 17,1 15,1 13 7 WNW 1017,5 -
01.07.2020 18:00:00 17,3 15,5 13 7 WNW 1017,6 -
01.07.2020 17:00:00 16,8 15,8 16 9 WNW 1017,5 9
01.07.2020 16:00:00 17,7 15,8 18 10 WNW 1017,3 -
01.07.2020 15:00:00 17,8 16,7 21 11 WNW 1017,0 -
01.07.2020 14:00:00 16,5 16,5 16 9 WNW 1016,7 2,5
01.07.2020 13:00:00 16,6 16,6 13 7 WNW 1016,3 -
01.07.2020 12:00:00 17,0 17,0 16 9 WNW 1015,7 -
01.07.2020 11:00:00 19,3 18,1 13 7 WNW 1015,0 15
01.07.2020 10:00:00 20,8 17,6 5 3 NW 1014,4 -
01.07.2020 09:00:00 20,0 17,6 8 4 SW 1014,0 -
01.07.2020 08:00:00 17,6 17,6 4 2 SW 1014,0 12
01.07.2020 07:00:00 17,6 17,6 9 5 W 1013,8 -
01.07.2020 06:00:00 17,9 17,5 15 8 W 1013,6 -
01.07.2020 05:00:00 17,7 14,3 9 5 WNW 1013,3 -
01.07.2020 04:00:00 17,7 16,0 5 3 WNW 1013,3 -
01.07.2020 03:00:00 18,0 16,5 0 0 N 1013,4 -
01.07.2020 02:00:00 17,8 16,9 5 3 W 1013,9 -
01.07.2020 01:00:00 17,9 15,6 0 0 N 1014,4 -
01.07.2020 00:00:00 18,0 17,5 0 0 N 1014,4 -
30.06.2020 23:00:00 18,3 17,8 2 1 N 1014,4 -
30.06.2020 22:00:00 18,3 17,1 4 2 NNW 1014,1 -
30.06.2020 21:00:00 19,0 16,9 4 2 NW 1013,9 -
30.06.2020 20:00:00 19,8 15,3 4 2 N 1013,6 30
30.06.2020 19:00:00 20,5 14,7 8 4 NNE 1013,6 -
30.06.2020 18:00:00 20,6 14,8 9 5 N 1013,8 -
30.06.2020 17:00:00 21,6 10,7 9 5 ENE 1014,4 30
30.06.2020 16:00:00 20,8 12,2 9 5 ENE 1014,5 -
30.06.2020 15:00:00 19,5 14,4 9 5 N 1015,1 -
30.06.2020 14:00:00 19,8 15,5 9 5 NNW 1015,3 25
30.06.2020 13:00:00 19,2 16,0 11 6 NNW 1015,6 -
30.06.2020 12:00:00 19,3 16,0 8 4 NW 1015,7 -
30.06.2020 11:00:00 18,1 15,9 9 5 NW 1015,9 -
30.06.2020 10:00:00 18,7 14,8 5 3 W 1016,0 -
30.06.2020 09:00:00 16,7 15,2 11 6 SSW 1016,1 -
30.06.2020 08:00:00 15,3 14,9 15 8 SSW 1016,3 -
30.06.2020 07:00:00 14,2 14,2 15 8 SSW 1016,6 -
30.06.2020 06:00:00 13,9 13,9 11 6 SSW 1016,7 -
30.06.2020 05:00:00 14,6 14,6 15 8 SW 1016,9 -
30.06.2020 04:00:00 14,6 14,6 13 7 SW 1017,6 -
30.06.2020 03:00:00 14,2 14,2 9 5 SW 1018,4 -
30.06.2020 02:00:00 14,4 14,4 8 4 SSW 1019,1 -
30.06.2020 01:00:00 14,5 14,5 5 3 SW 1019,7 -
30.06.2020 00:00:00 15,0 15,0 0 0 N 1019,9 -
29.06.2020 23:00:00 15,9 15,3 4 2 N 1019,8 -
29.06.2020 22:00:00 16,6 14,9 0 0 N 1019,5 -
29.06.2020 21:00:00 17,6 14,7 4 2 NNE 1019,7 -
29.06.2020 20:00:00 18,0 14,4 5 3 NNE 1019,9 -
29.06.2020 19:00:00 18,1 13,6 9 5 NNE 1020,2 -
29.06.2020 18:00:00 18,3 13,5 11 6 NNE 1020,4 -
29.06.2020 17:00:00 18,2 13,4 8 4 NE 1020,8 15
29.06.2020 16:00:00 17,2 13,9 9 5 NNE 1021,5 -
29.06.2020 15:00:00 17,4 14,6 8 4 E 1021,8 -
29.06.2020 14:00:00 16,9 15,2 9 5 E 1022,4 9
29.06.2020 13:00:00 15,8 15,8 9 5 E 1022,6 -
29.06.2020 12:00:00 15,2 15,2 5 3 NNE 1022,6 -
29.06.2020 11:00:00 15,0 15,0 5 3 NE 1022,4 2,0
29.06.2020 10:00:00 14,9 14,9 8 4 NE 1022,3 -
29.06.2020 09:00:00 15,1 15,1 4 2 E 1022,0 -
29.06.2020 08:00:00 14,6 14,6 4 2 E 1021,9 -
29.06.2020 07:00:00 14,4 14,4 5 3 NE 1021,8 -
29.06.2020 06:00:00 15,0 15,0 4 2 SW 1021,5 -
29.06.2020 05:00:00 15,1 15,1 8 4 SSW 1021,6 -
29.06.2020 04:00:00 15,1 15,1 5 3 SW 1021,6 -
29.06.2020 03:00:00 15,1 15,1 5 3 SW 1021,8 -
29.06.2020 02:00:00 15,3 15,3 4 2 SSW 1022,1 -
29.06.2020 01:00:00 15,4 15,4 5 3 WNW 1022,4 -
29.06.2020 00:00:00 15,6 15,6 4 2 W 1022,4 -
28.06.2020 23:00:00 15,6 15,6 8 4 W 1022,1 8
28.06.2020 22:00:00 16,0 16,0 11 6 W 1021,6 -
28.06.2020 21:00:00 16,4 16,4 15 8 WNW 1021,5 -
28.06.2020 20:00:00 17,0 17,0 11 6 WNW 1021,3 -
28.06.2020 19:00:00 17,3 17,3 11 6 NW 1021,0 -
28.06.2020 18:00:00 18,0 18,0 13 7 WNW 1020,7 -
28.06.2020 17:00:00 18,8 18,8 13 7 WNW 1020,3 -
28.06.2020 16:00:00 20,2 17,3 8 4 NW 1020,2 -
28.06.2020 15:00:00 20,2 16,8 8 4 NNW 1020,0 -
28.06.2020 14:00:00 20,6 15,1 8 4 NW 1019,8 10
28.06.2020 13:00:00 20,6 15,1 4 2 NNW 1019,7 -
28.06.2020 12:00:00 19,8 14,4 5 3 N 1019,6 -
28.06.2020 11:00:00 20,6 15,6 9 5 N 1019,4 12
28.06.2020 10:00:00 19,2 15,7 5 3 SSW 1019,4 -
28.06.2020 09:00:00 17,2 16,2 9 5 SW 1019,3 -
28.06.2020 08:00:00 16,4 16,4 13 7 SW 1019,0 -
28.06.2020 07:00:00 15,3 15,3 11 6 SSW 1018,9 -
28.06.2020 06:00:00 14,5 14,5 8 4 SE 1019,1 -
28.06.2020 05:00:00 15,5 15,5 9 5 S 1019,0 -
28.06.2020 04:00:00 16,6 16,4 8 4 S 1019,3 -
28.06.2020 03:00:00 16,6 16,3 4 2 SSW 1019,7 -
28.06.2020 02:00:00 16,7 16,2 0 0 N 1019,8 -
28.06.2020 01:00:00 16,8 16,0 5 3 W 1019,9 -
28.06.2020 00:00:00 16,9 15,6 8 4 W 1020,0 -
27.06.2020 23:00:00 16,8 16,0 5 3 WSW 1019,8 -
27.06.2020 22:00:00 16,9 16,1 8 4 W 1019,0 -
27.06.2020 21:00:00 16,9 16,7 8 4 W 1018,7 -
27.06.2020 20:00:00 17,2 16,4 9 5 WNW 1018,5 -
27.06.2020 19:00:00 17,6 16,8 9 5 WNW 1018,1 -
27.06.2020 18:00:00 18,2 17,2 9 5 WNW 1017,7 -

tt = temperature
td = dewpoint
ff = wind speed
dd = wind direction
ppp = reduced air pressure
vv = visibility

Next stations